Location: Freiburg+im+Breisgau
(48.0359°N, 7.8195°E)
Time: 14:14:47
(UTC+01:00)

ISS - Pass Details

Date: 13 November 2017
Orbit: 402 x 407 km, 51.6° (Epoch: 23 November)

Event Time Altitude Azimuth Distance (km) Brightness Sun altitude
Exits shadow 05:02:22 30° 73° (ENE) 757 -1.9 -25.0°
Drops below altitude 10° 05:04:15 10° 90° (E) 1,455 0.0 -24.7°
Sets 05:06:22 0° 96° (E) 2,313 1.4 -24.3°
